SCP
0 0 0 0 0 0 0 0 0 0 0 0 0 0 0 0 0 0 0 -0 0 0 0 0 0 0 0 0 0 0 0 0 0 0 0 0 0 0
0 0 0 0 0 0 0 0 0 0 0 0 0 0 0 0 0 0 0 0 0 0 0 0 0 0 0 0 0 0 0 0 0 0 0 0 0 0
0 0 0 0 0 0 0 0 0 0 0 0 0 0 0 0 0 0 0 0 0 0 0 0 0 0 0 0 0 0 0 0 0 0 0 0 0 0
0 0 0 0 0 0 0 0 0 0 0 0 0 0 0 0 0 0 0 0 0 0 0 -0 0 0 0 0 0 0 0 0 0 0 0 0 0 0
0 0 0 0 0 0 0 0 0 0 0 0 0 0 0 0 0 0 0 0 0 0 0 0 0 0 0 0 0 0 0 0 0 0 0 0 0 0
0 0 0 0 0 0 0 0 0 0 0 0 0 0 0 0 0 0 0 0 0 0 0 0 0 0 0 0 0 0 0 0 0 0 0 0 0 0
0 0 0 0 0 0 0 0 0 0 0 0 0 0 0 0 0 0 0 0 0 0 0 0 0 0 0 0 0 0 0 0 0 0 0 0 0 0
0 0 0 0 0 0 0 0 0 0 0 0 0 0 0 0 0 0 0 0 0 0 0 0 0 0 0 0 0 0 0 0 0 0 0 0 0 0
0 0 0 0 0 0 0 0 0 0 0 0 0 0 0 0 0 0 0 0 0 0 0 0 0 0 0 0 0 -0 0 0 0 0 0 0 -0 -0
0 0 0 0 0 0 0 0 0 0 0 0 0 0 0 0 0 0 0 0 0 0 0 0 0 0 0 0 -0 0 0 0 0 0 0 -0 0 0
0 0 0 0 0 0 0 0 0 0 0 0 0 0 0 0 0 0 0 0 0 0 0 0 0 0 0 0 0 0 0 0 0 0 -0 -0 -0 -0
0 0 0 0 0 0 0 0 0 0 0 0 0 0 0 0 0 0 0 0 0 0 0 0 0 0 0 0 0 0 0 0 0 -0 -0 -0 -0 -0
0 0 0 0 0 0 0 0 0 0 0 0 0 0 0 0 0 0 0 0 0 0 0 0 0 0 0 0 0 0 0 0 0 -0 -0 -0 -0 -0
0 0 0 0 0 0 0 0 0 0 0 0 0 0 0 0 0 0 0 0 0 0 0 0 0 0 0 0 0 0 0 0 0 -0 -0 -0 -0 -0
0 0 0 0 0 0 0 0 0 0 0 0 0 0 0 0 0 0 0 0 0 0 0 0 0 0 0 0 0 0 0 0 -0 -0 -0 -0 -0 -0
0 0 0 0 0 0 0 0 0 0 0 0 0 0 0 0 0 0 0 0 0 0 0 0 0 0 0 0 0 0 0 -0 -0 -0 -0 -0 -0 -0
0 0 0 0 0 0 0 0 0 0 0 0 0 0 0 0 0 0 0 0 0 0 0 0 0 0 0 0 0 0 0 -0 -0 -0 -0 -0 -0 -0
0 0 0 0 0 0 0 0 0 0 0 0 0 0 0 0 0 0 0 0 0 0 0 0 0 0 0 0 0 0 0 -0 -0 -0 -0 -0 -0 -0
0 0 0 0 0 0 0 0 0 0 0 0 0 0 0 0 0 0 0 0 0 0 0 0 0 0 0 0 0 -0 -0 -0 -0 -0 -0 -0 -0 -0
0 0 0 0 0 0 0 0 0 0 0 0 0 0 0 0 0 0 0 0 0 0 0 0 0 0 0 0 0 -0 -0 0 0 0 -0 -0 -0 -0
0 0 0 0 0 0 0 0 0 0 0 0 0 0 0 0 0 0 0 0 0 0 0 0 0 0 0 0 0 0 -0 -0 0 0 0 0 0 0
0 0 0 0 0 0 0 0 0 0 0 0 0 0 0 0 0 0 0 0 0 0 0 0 0 0 0 0 0 0 0 0 0 0 0 0 0 0
0 0 0 0 0 0 0 0 0 0 0 0 0 0 0 0 0 0 0 0 0 0 0 0 0 0 0 0 0 0 0 0 0 0 0 0 0 0
Wind_Speed_500mb
17 18 20 22 24 26 30 34 38 34 43 37 59 64 62 59 60 66 72 74 73 72 69 65 62 62 66 71 71 72 72 73 74 73 75 76 77 77
18 19 20 22 24 27 29 33 37 41 34 55 63 65 64 64 67 72 75 78 76 74 70 66 61 65 71 71 71 72 71 74 73 76 77 78 80 80
19 20 22 24 25 28 31 34 39 45 54 63 62 62 66 71 74 74 76 80 80 79 75 71 62 67 76 70 71 70 73 72 74 77 76 75 78 76
23 24 25 27 29 31 36 39 41 45 57 66 65 63 64 70 75 82 83 82 79 81 74 67 77 79 77 73 72 69 75 72 77 78 77 81 80 81
24 26 29 31 33 35 38 42 46 49 56 64 66 64 67 75 82 85 86 87 83 87 79 78 86 84 83 79 76 76 76 75 81 79 80 85 86 85
29 31 32 33 35 37 40 45 50 54 56 56 62 67 70 75 80 89 95 90 92 82 81 92 93 89 86 83 85 84 74 81 82 80 87 89 89 89
34 34 35 36 39 40 43 47 50 53 54 56 62 66 70 78 82 85 89 95 95 85 92 100 102 96 95 93 92 83 80 82 79 87 91 91 92 90
36 37 37 37 37 39 41 43 47 50 51 54 58 60 65 70 74 78 83 89 101 87 105 110 100 98 103 98 95 78 76 78 90 90 91 91 91 95
40 39 39 39 41 38 40 40 44 45 49 50 53 56 65 65 68 73 75 78 83 92 96 112 98 110 109 105 93 71 75 91 90 91 90 94 94 96
43 41 40 40 40 43 42 42 44 46 48 48 51 55 58 60 60 65 72 77 81 82 82 92 108 114 116 111 96 72 95 94 94 95 97 95 99 100
48 45 40 40 40 43 45 43 44 47 48 48 48 50 52 53 56 65 68 76 90 89 62 80 99 112 122 100 108 118 112 107 104 98 98 100 97 102
52 47 42 41 43 44 45 44 46 50 50 50 50 47 49 52 52 54 59 64 66 86 71 92 87 81 87 112 124 120 114 108 102 99 105 104 97 111
54 49 43 44 45 43 45 45 46 54 49 54 55 51 49 49 48 50 53 55 58 61 67 63 83 85 66 96 124 111 110 112 103 107 109 108 110 108
57 50 46 46 45 42 45 45 50 50 52 55 55 53 52 49 48 50 52 53 48 53 56 55 66 69 80 96 99 109 106 107 97 109 113 112 123 130
58 53 49 48 44 44 45 46 49 49 53 55 55 54 52 52 52 53 51 56 56 46 47 51 54 64 69 76 85 88 105 106 98 105 113 116 132 135
60 57 52 49 47 47 46 47 46 49 53 55 54 53 52 52 50 53 57 61 65 58 45 50 54 59 68 68 60 71 80 82 98 99 108 107 126 133
61 60 59 53 49 48 46 43 46 50 51 50 51 52 53 54 51 50 52 57 57 63 64 58 57 58 59 58 54 62 79 83 83 94 101 105 117 133
67 67 63 53 50 48 45 43 47 49 49 49 49 52 54 54 53 47 48 50 55 55 57 60 65 72 70 68 53 64 73 77 78 83 84 95 105 123
62 59 55 51 48 47 46 47 49 48 49 47 50 51 52 52 49 45 46 48 49 48 49 51 53 59 69 72 61 56 66 69 73 71 78 82 93 97
68 69 63 54 50 48 47 48 48 48 47 48 49 48 49 52 47 41 40 44 45 44 46 44 44 47 50 55 66 63 46 57 60 59 68 71 75 74
72 68 59 54 50 47 46 47 49 45 45 47 45 45 45 48 43 39 38 38 37 38 42 43 40 36 37 41 48 57 42 33 35 42 51 59 65 75
68 65 62 56 49 46 46 48 46 43 42 42 42 42 40 41 38 35 33 35 31 34 38 38 35 34 34 39 45 48 45 39 27 29 40 43 44 55
67 59 55 50 45 44 47 45 41 36 33 34 32 31 32 30 30 30 30 28 27 31 34 38 33 30 29 32 36 38 36 31 30 41 44 52 31 33
Wind_Direction_500mb
346 348 345 341 340 338 334 335 337 333 329 332 330 335 335 337 337 340 339 341 342 341 339 340 336 333 331 330 327 325 324 321 319 315 313 310 308 305
339 336 334 332 331 330 330 330 330 329 321 325 332 333 335 336 338 340 339 340 343 342 344 341 337 332 331 330 328 326 324 322 319 318 316 312 307 301
327 327 324 323 322 320 322 325 325 325 323 324 329 331 334 334 336 336 337 342 344 342 345 342 334 332 335 330 328 326 321 322 321 319 315 312 312 308
319 318 317 317 317 320 322 321 321 325 325 324 329 331 331 332 334 338 340 341 342 343 342 342 339 335 335 333 327 323 320 319 320 318 313 310 309 305
311 311 312 312 314 315 318 321 325 325 325 324 324 330 333 336 337 336 336 339 343 341 339 339 337 336 336 334 328 324 322 320 317 313 310 308 306 303
305 305 303 305 308 314 320 321 322 323 321 321 326 330 335 337 335 335 335 339 339 340 336 336 334 337 334 335 331 329 323 319 316 312 309 306 303 300
295 296 297 302 311 317 319 317 318 320 322 329 327 329 334 335 336 334 332 334 335 340 332 333 333 335 335 336 335 329 322 321 317 313 311 306 302 299
289 291 295 303 306 309 311 314 317 322 323 325 326 328 330 332 330 331 330 333 332 342 332 330 333 333 333 336 335 324 324 321 318 316 312 308 304 300
282 285 290 297 298 300 307 310 312 318 319 322 322 326 326 328 327 326 327 328 327 333 330 325 332 331 332 336 337 328 326 324 323 320 316 312 307 302
277 280 286 290 293 300 303 308 314 316 316 321 320 320 321 322 323 321 325 322 326 334 336 323 330 329 331 336 340 330 331 329 328 325 320 316 311 307
274 275 280 286 290 293 298 306 311 311 314 316 315 316 316 319 320 320 326 332 332 335 339 323 328 331 330 335 335 338 341 340 339 335 332 327 323 316
271 272 278 284 285 288 295 303 306 306 310 313 314 314 316 317 318 322 328 332 334 331 335 328 327 336 328 330 332 340 341 345 344 345 346 348 344 326
268 269 273 275 278 284 290 300 302 305 313 311 312 314 314 313 319 327 329 330 329 322 331 327 323 329 322 320 329 338 343 344 347 349 354 353 351 334
268 267 267 267 272 279 286 292 294 304 306 309 310 312 313 320 325 326 326 325 328 325 325 326 323 328 327 326 326 337 341 347 350 352 356 356 360 354
267 262 261 264 268 273 279 285 293 299 303 305 308 311 316 321 323 323 324 322 324 331 329 330 331 329 330 329 325 337 341 347 355 357 360 2 354 352
262 260 260 263 267 271 274 280 291 297 301 305 307 309 313 314 320 324 325 324 323 332 341 335 335 334 335 339 334 337 349 346 354 0 2 8 6 3
257 255 257 262 265 268 273 282 289 293 298 302 302 306 309 313 321 323 321 322 326 333 338 339 339 338 341 349 345 350 351 354 360 2 6 10 13 10
248 250 255 257 261 265 272 280 288 294 299 301 302 305 308 312 316 320 317 321 327 333 338 341 342 342 347 357 7 353 353 353 360 6 14 8 14 20
243 252 254 257 259 265 274 283 290 295 297 298 301 303 304 306 310 316 317 321 325 331 339 344 347 351 349 346 352 10 348 353 355 7 17 23 17 25
242 250 253 259 260 265 274 283 290 294 297 298 299 301 301 300 306 310 312 317 323 329 334 345 349 351 348 337 328 348 9 353 351 358 9 30 41 49
251 251 252 258 262 268 276 284 290 294 296 295 296 297 296 295 300 301 308 314 321 326 330 341 347 343 336 330 335 345 4 9 359 2 7 17 31 42
254 252 252 258 263 270 279 286 289 294 294 295 297 299 297 296 297 299 306 311 317 323 327 333 340 341 342 343 342 346 355 16 33 23 40 27 35 49
255 253 252 256 263 272 279 283 289 292 293 296 301 301 297 296 291 295 302 308 314 318 326 331 339 344 349 342 340 345 352 12 38 81 78 54 46 56
Wind_Speed_850mb
17 18 20 22 24 26 30 34 38 34 43 37 59 64 62 59 60 66 72 74 73 72 69 65 62 62 66 71 71 72 72 73 74 73 75 76 77 77
18 19 20 22 24 27 29 33 37 41 34 55 63 65 64 64 67 72 75 78 76 74 70 66 61 65 71 71 71 72 71 74 73 76 77 78 80 80
19 20 22 24 25 28 31 34 39 45 54 63 62 62 66 71 74 74 76 80 80 79 75 71 62 67 76 70 71 70 73 72 74 77 76 75 78 76
23 24 25 27 29 31 36 39 41 45 57 66 65 63 64 70 75 82 83 82 79 81 74 67 77 79 77 73 72 69 75 72 77 78 77 81 80 81
24 26 29 31 33 35 38 42 46 49 56 64 66 64 67 75 82 85 86 87 83 87 79 78 86 84 83 79 76 76 76 75 81 79 80 85 86 85
29 31 32 33 35 37 40 45 50 54 56 56 62 67 70 75 80 89 95 90 92 82 81 92 93 89 86 83 85 84 74 81 82 80 87 89 89 89
34 34 35 36 39 40 43 47 50 53 54 56 62 66 70 78 82 85 89 95 95 85 92 100 102 96 95 93 92 83 80 82 79 87 91 91 92 90
36 37 37 37 37 39 41 43 47 50 51 54 58 60 65 70 74 78 83 89 101 87 105 110 100 98 103 98 95 78 76 78 90 90 91 91 91 95
40 39 39 39 41 38 40 40 44 45 49 50 53 56 65 65 68 73 75 78 83 92 96 112 98 110 109 105 93 71 75 91 90 91 90 94 94 96
43 41 40 40 40 43 42 42 44 46 48 48 51 55 58 60 60 65 72 77 81 82 82 92 108 114 116 111 96 72 95 94 94 95 97 95 99 100
48 45 40 40 40 43 45 43 44 47 48 48 48 50 52 53 56 65 68 76 90 89 62 80 99 112 122 100 108 118 112 107 104 98 98 100 97 102
52 47 42 41 43 44 45 44 46 50 50 50 50 47 49 52 52 54 59 64 66 86 71 92 87 81 87 112 124 120 114 108 102 99 105 104 97 111
54 49 43 44 45 43 45 45 46 54 49 54 55 51 49 49 48 50 53 55 58 61 67 63 83 85 66 96 124 111 110 112 103 107 109 108 110 108
57 50 46 46 45 42 45 45 50 50 52 55 55 53 52 49 48 50 52 53 48 53 56 55 66 69 80 96 99 109 106 107 97 109 113 112 123 130
58 53 49 48 44 44 45 46 49 49 53 55 55 54 52 52 52 53 51 56 56 46 47 51 54 64 69 76 85 88 105 106 98 105 113 116 132 135
60 57 52 49 47 47 46 47 46 49 53 55 54 53 52 52 50 53 57 61 65 58 45 50 54 59 68 68 60 71 80 82 98 99 108 107 126 133
61 60 59 53 49 48 46 43 46 50 51 50 51 52 53 54 51 50 52 57 57 63 64 58 57 58 59 58 54 62 79 83 83 94 101 105 117 133
67 67 63 53 50 48 45 43 47 49 49 49 49 52 54 54 53 47 48 50 55 55 57 60 65 72 70 68 53 64 73 77 78 83 84 95 105 123
62 59 55 51 48 47 46 47 49 48 49 47 50 51 52 52 49 45 46 48 49 48 49 51 53 59 69 72 61 56 66 69 73 71 78 82 93 97
68 69 63 54 50 48 47 48 48 48 47 48 49 48 49 52 47 41 40 44 45 44 46 44 44 47 50 55 66 63 46 57 60 59 68 71 75 74
72 68 59 54 50 47 46 47 49 45 45 47 45 45 45 48 43 39 38 38 37 38 42 43 40 36 37 41 48 57 42 33 35 42 51 59 65 75
68 65 62 56 49 46 46 48 46 43 42 42 42 42 40 41 38 35 33 35 31 34 38 38 35 34 34 39 45 48 45 39 27 29 40 43 44 55
67 59 55 50 45 44 47 45 41 36 33 34 32 31 32 30 30 30 30 28 27 31 34 38 33 30 29 32 36 38 36 31 30 41 44 52 31 33
Wind_Direction_850mb
346 348 345 341 340 338 334 335 337 333 329 332 330 335 335 337 337 340 339 341 342 341 339 340 336 333 331 330 327 325 324 321 319 315 313 310 308 305
339 336 334 332 331 330 330 330 330 329 321 325 332 333 335 336 338 340 339 340 343 342 344 341 337 332 331 330 328 326 324 322 319 318 316 312 307 301
327 327 324 323 322 320 322 325 325 325 323 324 329 331 334 334 336 336 337 342 344 342 345 342 334 332 335 330 328 326 321 322 321 319 315 312 312 308
319 318 317 317 317 320 322 321 321 325 325 324 329 331 331 332 334 338 340 341 342 343 342 342 339 335 335 333 327 323 320 319 320 318 313 310 309 305
311 311 312 312 314 315 318 321 325 325 325 324 324 330 333 336 337 336 336 339 343 341 339 339 337 336 336 334 328 324 322 320 317 313 310 308 306 303
305 305 303 305 308 314 320 321 322 323 321 321 326 330 335 337 335 335 335 339 339 340 336 336 334 337 334 335 331 329 323 319 316 312 309 306 303 300
295 296 297 302 311 317 319 317 318 320 322 329 327 329 334 335 336 334 332 334 335 340 332 333 333 335 335 336 335 329 322 321 317 313 311 306 302 299
289 291 295 303 306 309 311 314 317 322 323 325 326 328 330 332 330 331 330 333 332 342 332 330 333 333 333 336 335 324 324 321 318 316 312 308 304 300
282 285 290 297 298 300 307 310 312 318 319 322 322 326 326 328 327 326 327 328 327 333 330 325 332 331 332 336 337 328 326 324 323 320 316 312 307 302
277 280 286 290 293 300 303 308 314 316 316 321 320 320 321 322 323 321 325 322 326 334 336 323 330 329 331 336 340 330 331 329 328 325 320 316 311 307
274 275 280 286 290 293 298 306 311 311 314 316 315 316 316 319 320 320 326 332 332 335 339 323 328 331 330 335 335 338 341 340 339 335 332 327 323 316
271 272 278 284 285 288 295 303 306 306 310 313 314 314 316 317 318 322 328 332 334 331 335 328 327 336 328 330 332 340 341 345 344 345 346 348 344 326
268 269 273 275 278 284 290 300 302 305 313 311 312 314 314 313 319 327 329 330 329 322 331 327 323 329 322 320 329 338 343 344 347 349 354 353 351 334
268 267 267 267 272 279 286 292 294 304 306 309 310 312 313 320 325 326 326 325 328 325 325 326 323 328 327 326 326 337 341 347 350 352 356 356 360 354
267 262 261 264 268 273 279 285 293 299 303 305 308 311 316 321 323 323 324 322 324 331 329 330 331 329 330 329 325 337 341 347 355 357 360 2 354 352
262 260 260 263 267 271 274 280 291 297 301 305 307 309 313 314 320 324 325 324 323 332 341 335 335 334 335 339 334 337 349 346 354 0 2 8 6 3
257 255 257 262 265 268 273 282 289 293 298 302 302 306 309 313 321 323 321 322 326 333 338 339 339 338 341 349 345 350 351 354 360 2 6 10 13 10
248 250 255 257 261 265 272 280 288 294 299 301 302 305 308 312 316 320 317 321 327 333 338 341 342 342 347 357 7 353 353 353 360 6 14 8 14 20
243 252 254 257 259 265 274 283 290 295 297 298 301 303 304 306 310 316 317 321 325 331 339 344 347 351 349 346 352 10 348 353 355 7 17 23 17 25
242 250 253 259 260 265 274 283 290 294 297 298 299 301 301 300 306 310 312 317 323 329 334 345 349 351 348 337 328 348 9 353 351 358 9 30 41 49
251 251 252 258 262 268 276 284 290 294 296 295 296 297 296 295 300 301 308 314 321 326 330 341 347 343 336 330 335 345 4 9 359 2 7 17 31 42
254 252 252 258 263 270 279 286 289 294 294 295 297 299 297 296 297 299 306 311 317 323 327 333 340 341 342 343 342 346 355 16 33 23 40 27 35 49
255 253 252 256 263 272 279 283 289 292 293 296 301 301 297 296 291 295 302 308 314 318 326 331 339 344 349 342 340 345 352 12 38 81 78 54 46 56